Location: Ar Ranvel
(48.3000°N, 4.8833°W)
Time: 07:49:55
(UTC+00:00)

FALCON 9 DEB - Pass Details

Date: 26 October 2021
Orbit: 417 x 427 km, 53.0° (Epoch: 30 November)

Event Time Altitude Azimuth Distance (km) Brightness Sun altitude
Rises 19:58:51 0° 245° (WSW) 2,392 7.6 -28.5°
Reaches altitude 10° 20:00:58 10° 247° (WSW) 1,528 6.5 -28.9°
Enters shadow 20:01:33 14° 247° (WSW) 1,288 6.1 -29.0°
